Overview Statistics Trail Chart Weather Telemetry Raw packets
 

This is the latest recevied weather packets stored in our database for station/object WX6HNX-5. If no packets are shown the sender has not sent any weather packets the latest 10 day(s).

<< 25 26 27 28 29 30 31 >>
Time Temp. Humidity Pressure Rain* Wind** Luminosity Snow
1777401840 19.44° C 50% 1018.4 hPa 0 mm - - -
1777401240 18.89° C 50% 1018.7 hPa 0 mm - - -
1777400941 18.89° C 52% 1018.7 hPa 0 mm - - -
1777400640 18.89° C 52% 1018.7 hPa 0 mm - - -
1777400340 18.89° C 53% 1018.7 hPa 0 mm - - -
1777400041 18.33° C 54% 1018.8 hPa 0 mm - - -
1777399741 17.78° C 54% 1018.8 hPa 0 mm - - -
1777399140 17.78° C 55% 1019 hPa 0 mm - - -
1777398840 17.78° C 56% 1019 hPa 0 mm - - -
1777398540 17.78° C 55% 1019 hPa 0 mm - - -
1777397640 17.22° C 58% 1019.1 hPa 0 mm - - -
1777396896 16.67° C 59% 1019.2 hPa 0 mm - - -
1777396595 16.11° C 60% 1019.1 hPa 0 mm - - -
1777396296 16.11° C 60% 1019.1 hPa 0 mm - - -
1777395996 16.11° C 61% 1019.1 hPa 0 mm - - -
1777395695 15.56° C 60% 1019.2 hPa 0 mm - - -
1777395396 15.56° C 61% 1019.1 hPa 0 mm - - -
1777395096 15.56° C 62% 1019.2 hPa 0 mm - - -
1777394797 15.56° C 61% 1019.2 hPa 0 mm - - -
1777394495 15.56° C 61% 1019.2 hPa 0 mm - - -
1777394197 15.56° C 61% 1019.2 hPa 0 mm - - -
1777393896 15° C 63% 1019.2 hPa 0 mm - - -
1777393595 15° C 63% 1019.2 hPa 0 mm - - -
1777393296 15° C 63% 1019.3 hPa 0 mm - - -
1777392996 14.44° C 64% 1019.2 hPa 0 mm - - -

* Rain latest hour (hover to see other rain measurements)
** Current wind speed in m/s (hover to see current wind gust speed)